Location: Asheville, NC
(35.6000°N, 82.5500°W)
Time: 16:33:52
(UTC-05:00)

Iridium 28 - Pass Details

Date: 07 January 2018
Orbit: 772 x 774 km, 86.4° (Epoch: 17 January)

Event Time Altitude Azimuth Distance (km) Brightness Sun altitude
Rises 19:10:01 0° 345° (NNW) 3,249 8.8 -19.2°
Reaches altitude 10° 19:12:35 10° 335° (NNW) 2,318 8.1 -19.8°
Maximum altitude 19:17:04 30° 276° (W) 1,347 7.4 -20.6°
Drops below altitude 10° 19:21:32 10° 216° (SW) 2,306 8.6 -21.5°
Sets 19:24:05 0° 205° (SSW) 3,229 9.3 -22.0°
